Weather observations for the past three days for
Provincetown Municipal Airport
Metric (Imperial)
Date Time (edt) Wind (kph) Vis. (km) Weather Sky Cond. Temperature (ºC) Relative Humidity Wind Chill (°C) Heat Index (°C) Pressure Precipitation (cm)
Air Dwpt 6 hour altimeter (cm) sea level (mb) 1 hr 3 hr 6 hr
Max. Min.
21 12:56 NE 17 16.09 Mostly Cloudy FEW004 SCT010 BKN048 22.8 20.6 87% 76.66 1022.0
21 11:56 N 19 16.09 Partly Cloudy SCT006 22.8 20.6 87% 76.68 1022.4
21 10:56 N 13 16.09 Fair CLR 23.9 21.1 84% 24 76.63 1021.7
21 09:56 NW 11 16.09 Fair CLR 24.4 21.7 85% 25 76.66 1021.9
21 08:56 W 6 16.09 Fair CLR 25 21.7 82% 26 76.63 1021.6
21 07:56 SW 7 16.09 Fair CLR 23.3 21.1 23.3 18.3 88% 76.66 1022.0
21 06:56 SW 6 16.09 Fair CLR 21.7 21.1 96% 76.66 1021.9
21 05:56 S 7 14.48 Fair CLR 19.4 19.4 100% 76.66 1022.0
21 04:56 Calm 16.09 Fair CLR 18.9 18.9 100% 76.68 1022.2
21 03:56 SW 7 16.09 Fair CLR 19.4 19.4 100% 76.68 1022.1
21 02:56 SW 17 16.09 Fair CLR 20 20 100% 76.66 1021.9
21 01:56 SW 6 16.09 Fair CLR 18.9 18.9 23.9 18.3 100% 76.68 1022.1
21 00:56 SW 9 16.09 Fair CLR 18.9 18.9 100% 76.71 1022.5
20 23:56 SE 9 11.27 Fair CLR 20 20 100% 76.68 1022.2
20 22:56 N 11 8.05 Fog/Mist FEW065 20 20 100% 76.78 1023.7
20 21:56 NW 28 G 33 16.09 Thunderstorm in Vicinity OVC043 22.2 20 87% 76.86 1024.5
20 20:56 SW 20 16.09 Fair CLR 20.6 19.4 93% 76.68 1022.1
20 19:56 SW 22 16.09 Fair CLR 22.2 20 26.7 22.2 87% 76.63 1021.6
20 18:56 SW 22 16.09 Fair CLR 23.3 20.6 85% 76.61 1021.4
20 17:56 SW 24 G 33 16.09 Fair CLR 24.4 20.6 79% 25 76.61 1021.3
20 16:56 SW 22 G 33 16.09 Fair CLR 25.6 21.1 76% 27 76.66 1021.7
20 15:56 SW 24 16.09 Fair CLR 25.6 21.1 76% 27 76.68 1022.1
20 14:56 SW 28 G 41 16.09 Fair CLR 26.7 21.7 74% 29 76.73 1022.8
20 13:56 SW 28 G 37 16.09 Fair CLR 26.1 21.1 26.1 21.7 74% 28 76.76 1023.3
20 12:56 SW 24 16.09 Fair CLR 26.1 21.1 74% 28 76.81 1024.0
20 11:56 SW 26 G 37 16.09 Fair CLR 25.6 20.6 74% 27 76.84 1024.3
20 10:56 SW 28 G 37 16.09 Fair CLR 24.4 20 77% 25 76.86 1024.5
20 09:56 SW 24 G 33 16.09 Fair CLR 23.9 20 79% 24 76.86 1024.6
20 08:56 SW 19 16.09 Fair CLR 22.8 19.4 81% 76.84 1024.4
20 07:56 SW 19 16.09 Fair CLR 21.7 18.9 21.7 18.9 84% 76.86 1024.6
20 06:56 SW 20 16.09 Fair CLR 20.6 18.9 90% 76.86 1024.6
20 05:56 SW 19 16.09 Fair CLR 19.4 17.8 91% 76.86 1024.6
20 04:56 SW 17 16.09 Fair CLR 18.9 17.2 90% 76.84 1024.4
20 03:56 SW 19 16.09 Partly Cloudy SCT060 19.4 17.8 91% 76.86 1024.5
20 02:56 SW 19 16.09 Fair CLR 18.9 17.8 93% 76.89 1024.9
20 01:56 SW 20 16.09 Fair CLR 18.9 17.8 20.6 18.9 93% 76.89 1024.9
20 00:56 S 22 16.09 Fair CLR 18.9 17.8 93% 76.89 1025.1
19 23:56 SW 22 16.09 Fair CLR 19.4 17.8 91% 76.89 1025.1
19 22:56 SW 20 16.09 Fair CLR 19.4 17.8 91% 76.96 1025.9
19 21:56 SW 24 16.09 Fair CLR 19.4 17.8 91% 76.91 1025.3
19 20:56 SW 28 G 35 16.09 Fair CLR 20 17.8 87% 76.91 1025.3
19 19:56 SW 28 G 39 16.09 Fair CLR 20.6 17.8 26.1 20.6 84% 76.94 1025.8
19 18:56 SW 28 G 41 16.09 Fair CLR 21.7 17.8 79% 76.94 1025.7
19 17:56 SW 28 G 43 16.09 Fair CLR 23.9 18.3 71% 25 76.91 1025.2
19 16:56 S 26 G 37 16.09 Fair CLR 23.9 18.9 74% 25 76.91 1025.3
19 15:56 SW 28 G 43 16.09 Fair CLR 25 19.4 71% 26 76.94 1025.5
19 14:56 SW 30 G 43 16.09 Fair CLR 26.1 20 69% 27 76.94 1025.5
19 13:56 SW 30 G 39 16.09 Fair CLR 26.1 19.4 26.7 20.6 67% 27 76.94 1025.7
19 12:56 SW 26 G 33 16.09 Fair CLR 26.1 19.4 67% 27 76.96 1026.0
19 11:56 SW 22 G 35 16.09 Fair CLR 26.1 19.4 67% 27 76.99 1026.4
19 10:56 SW 24 G 33 16.09 Fair CLR 24.4 18.3 69% 25 77.01 1026.6
19 09:56 SW 22 16.09 Fair CLR 23.3 19.4 79% 77.01 1026.6
19 08:56 SW 20 16.09 Fair CLR 21.1 18.9 87% 77.01 1026.7
19 07:56 S 19 16.09 Fair CLR 20.6 18.3 20.6 18.9 87% 77.01 1026.7
19 06:56 SW 20 16.09 Fair CLR 19.4 17.8 91% 77.01 1026.7
19 05:56 SW 17 16.09 Fair CLR 18.9 17.8 93% 76.96 1026.0
19 04:56 SW 20 16.09 Fair CLR 18.9 18.3 96% 76.96 1025.8
19 03:56 S 22 16.09 Fair CLR 18.9 18.3 96% 76.94 1025.8
19 02:56 S 19 16.09 Fair CLR 18.9 17.8 93% 76.96 1025.8
19 01:56 SW 20 G 30 16.09 Fair CLR 19.4 17.8 20.6 18.9 91% 76.91 1025.4
19 00:56 S 19 16.09 Fair CLR 19.4 17.8 91% 76.91 1025.5
18 23:56 SW 15 16.09 Fair CLR 18.9 17.2 90% 76.89 1025.0
18 22:56 S 20 16.09 Fair CLR 18.9 17.2 90% 76.86 1024.7
18 21:56 SW 19 16.09 Fair CLR 19.4 17.8 91% 76.86 1024.5
18 20:56 SW 28 G 37 16.09 Fair CLR 20 17.2 84% 76.81 1023.8
18 19:56 SW 24 16.09 Fair CLR 20.6 17.8 26.1 20.6 84% 76.78 1023.4
18 18:56 SW 28 G 35 16.09 Fair CLR 22.2 18.9 82% 76.76 1023.2
18 17:56 S 24 16.09 Fair CLR 23.9 19.4 76% 24 76.73 1022.9
18 16:56 S 26 16.09 Fair CLR 24.4 20 77% 25 76.76 1023.1
18 15:56 SW 30 G 39 16.09 Fair CLR 25 20.6 77% 26 76.76 1023.3
18 14:56 SW 30 G 41 16.09 Fair CLR 26.1 20.6 72% 28 76.76 1023.3
18 13:56 SW 24 G 37 16.09 Fair CLR 26.1 21.1 26.7 20 74% 28 76.76 1023.2
Date Time (edt) Wind (kph) Vis. (km) Weather Sky Cond. Air Dwpt Max. Min. Relative Humidity Wind Chill (°C) Heat Index (°C) altimeter (cm) sea level (mb) 1 hr 3 hr 6 hr
6 hour
Temperature (ºC) Pressure Precipitation (cm)